Flag for U.S.A. Weather past 2 weeks in Bellingham, Washington, U.S.A.

Now
62 °F

Clear.


Feels Like: 62 °F
Forecast: 61 / 85 °F
Wind: No wind

Location: Bellingham International Airport

Current Time: Jul 2, 2015 at 5:50:39 AM

Latest Report: Jul 2, 2015 at 4:53 AM


Visibility: 10 mi

Pressure: 30.00 "Hg

Humidity: 93%

Dew point: 60 °F

Location of BellinghamLocation

Historic Weather in Bellingham — Graph

°F

Bellingham temperature yesterday

Maximum temperature yesterday: 84 °F (at 4:53 PM)
Minimum temperature yesterday: 58 °F (at 4:53 AM)
Average temperature yesterday: 71 °F

Past Weeks' High & Low Weather Summary

 TemperatureHumidityPressure
High85 °F (Jun 27, 2:53 PM)100% (Jun 18, 11:03 PM)30.17 "Hg (Jun 18, 11:03 PM)
Low49 °F (Jun 20, 4:53 AM)31% (Jun 25, 3:53 PM)29.91 "Hg (Jun 21, 10:53 AM)
Average66 °F67%30.04 "Hg
* Reported Jun 17 3:53 AM — Jul 2 3:53 AM, Bellingham, Weather by CustomWeather, © 2015

Note: Actual official high and low records may vary slightly from our data, if they occured in-between our weather recording intervals... More about our weather records

Advertising

Bellingham weather history for previous 24 hours

 ConditionsComfort  
Time TempWeatherWind HumidityBarometerVisibility
3:53 AM
Thu, Jul 2
63 °FClear.5 mph87%29.98 "Hg10 mi
2:53 AM66 °FClear.5 mph81%29.98 "Hg10 mi
1:53 AM64 °FClear.No wind84%29.98 "Hg10 mi
12:53 AM65 °FClear.No wind78%29.98 "Hg10 mi
11:53 PM
Wed, Jul 1
65 °FClear.No wind78%29.97 "Hg10 mi
10:53 PM66 °FClear.No wind81%29.98 "Hg10 mi
9:53 PM71 °FSunny.5 mph66%29.97 "Hg10 mi
8:53 PM71 °FSunny.No wind71%29.95 "Hg10 mi
7:53 PM76 °FSunny.6 mph60%29.96 "Hg10 mi
6:53 PM78 °FSunny.6 mph58%29.97 "Hg10 mi
5:53 PM80 °FSunny.6 mph54%29.97 "Hg10 mi
4:53 PM84 °FSunny.5 mph43%29.98 "Hg10 mi
3:53 PM83 °FSunny.5 mph46%30.00 "Hg10 mi
2:53 PM80 °FSunny.6 mph52%30.02 "Hg10 mi
1:53 PM78 °FSunny.8 mph52%30.03 "Hg10 mi
12:53 PM79 °FSunny.7 mph48%30.04 "Hg10 mi
11:53 AM79 °FSunny.9 mph54%30.05 "Hg10 mi
10:53 AM78 °FSunny.5 mph52%30.06 "Hg10 mi
9:53 AM74 °FSunny.5 mph60%30.06 "Hg10 mi
8:53 AM70 °FSunny.No wind71%30.08 "Hg10 mi
7:53 AM67 °FSunny.No wind76%30.08 "Hg10 mi
6:53 AM65 °FSunny.No wind81%30.08 "Hg10 mi
5:53 AM60 °FClear.No wind90%30.07 "Hg10 mi
Weather by CustomWeather, © 2015

See weather overviewHow to use our weather pages